< < Back
Terminal Aerodrome Forecast


Current Version              Previous Versions:   1  2  3  4  5  6  7  8  9  

Terminal Aerodrome Forecast

707
FTUS42 KTAE 222300
TAFABY
TAF
KABY 222320Z 2300/2324 01007KT P6SM SKC
     FM230300 00000KT P6SM SKC
     FM231500 04006KT P6SM SKC=



Latest METAR

892
SAUS70 KWBC 230400 RRF
MTRABY
METAR KABY 230353Z 35003KT 10SM CLR 11/08 A3011 RMK AO2 SLP195 T01110083
PWINO $


USA.gov is the U.S. government's official web portal to all federal, state and local government web resources and services.